Weather History for KLOU - January, 2008

Change the Weather History Date:

Wednesday, January 2, 2008

  Actual Average Record
Temperature  
Mean Temperature 14 °F 35 °F  
Max Temperature 19 °F 43 °F 71 °F (2006)
Min Temperature 10 °F 27 °F 7 °F (1979)
Degree Days  
Heating Degree Days 50 30  
Month to date heating degree days 60  
Since 1 July heating degree days 1724  
Cooling Degree Days 0 0  
Month to date cooling degree days 0  
Year to date cooling degree days 0  
Moisture  
Dew Point 5 °F    
Average Humidity 62    
Maximum Humidity 73    
Minimum Humidity 50    
Precipitation  
Precipitation 0.00 in 0.13 in 1.18 in (1952)
Month to date precipitation 0.27  
Year to date precipitation 0.27  
Sea Level Pressure  
Sea Level Pressure 30.64 in    
Wind  
Wind Speed 11 mph (WNW)    
Max Wind Speed 14 mph    
Max Gust Speed 20 mph    
Visibility 9 miles    
Events Snow    
T = Trace of Precipitation, MM = Missing Value Source: NWS Daily Summary

Daily Weather History Graph

Daily Weather History Graph

Search for Another Location

Airport or City:

Trip Planner

Search our weather history database for the weather conditions in past years. The results will help you decide how hot, cold, wet, or windy it might be!

Date:

Astronomy

Jan. 02, 2008 Rise Set
Actual Time 7:59 AM EST 5:33 PM EST
Civil Twilight 7:30 AM EST 6:03 PM EST
Nautical Twilight 6:57 AM EST 6:36 PM EST
Astronomical Twilight 6:24 AM EST 7:08 PM EST
Moon 2:49 AM EST (1/2) 1:09 PM EST (1/2)
Length of Visible Light 10h 33m
Length of Day
9h 34m
Waning Crescent, 28% of the Moon is Illuminated
Jan 2
Waning Crescent
Jan 8
New
Jan 15
First Quarter
Jan 22
Full
Jan 30
Last Quarter

Hourly Weather History & Observations

Time (EST) Temp. Windchill Dew Point Humidity Pressure Visibility Wind Dir Wind Speed Gust Speed Precip Events Conditions
12:25 AM 15.8 °F - 8.6 °F 73% 30.39 in 5.0 mi North - - 0.00 in Snow Light Snow
12:53 AM 16.0 °F - 5.0 °F 62% 30.42 in 8.0 mi North - - 0.00 in Snow Light Snow
1:53 AM 15.1 °F - 5.0 °F 64% 30.43 in 10.0 mi North - - 0.00 in   Overcast
2:53 AM 15.1 °F - 5.0 °F 64% 30.45 in 10.0 mi North - - N/A   Overcast
3:53 AM 12.9 °F - 3.0 °F 65% 30.47 in 10.0 mi North - - N/A   Overcast
4:53 AM 12.0 °F - 1.9 °F 64% 30.49 in 10.0 mi North - - N/A   Overcast
5:53 AM 10.9 °F - 1.9 °F 67% 30.53 in 10.0 mi North - - N/A   Overcast
6:53 AM 10.9 °F - 1.0 °F 64% 30.56 in 10.0 mi North - - N/A   Overcast
7:53 AM 10.9 °F - 1.0 °F 64% 30.58 in 10.0 mi North - - N/A   Overcast
8:53 AM 10.9 °F -2.6 °F 1.9 °F 67% 30.62 in 10.0 mi WNW 10.4 mph - N/A   Overcast
9:53 AM 10.9 °F -1.8 °F 3.0 °F 70% 30.66 in 4.0 mi West 9.2 mph 19.6 mph 0.00 in Snow Light Snow
10:53 AM 12.9 °F -2.2 °F 1.9 °F 62% 30.68 in 10.0 mi WNW 13.8 mph - 0.00 in   Scattered Clouds
11:53 AM 15.1 °F 1.8 °F 1.9 °F 56% 30.69 in 10.0 mi NW 11.5 mph - N/A   Clear
12:53 PM 17.1 °F 5.0 °F 3.9 °F 56% 30.68 in 10.0 mi West 10.4 mph 17.3 mph N/A   Clear
1:53 PM 18.0 °F 6.1 °F 3.9 °F 54% 30.68 in 10.0 mi WNW 10.4 mph - N/A   Clear
2:53 PM 19.9 °F 7.3 °F 3.9 °F 50% 30.69 in 10.0 mi NW 12.7 mph - N/A   Clear
3:53 PM 19.9 °F 9.3 °F 5.0 °F 52% 30.70 in 10.0 mi NW 9.2 mph - N/A   Clear
4:53 PM 18.0 °F 5.4 °F 5.0 °F 57% 30.72 in 10.0 mi West 11.5 mph - N/A   Partly Cloudy
5:53 PM 17.1 °F 4.3 °F 5.0 °F 59% 30.74 in 10.0 mi West 11.5 mph - N/A   Clear
6:26 PM 17.6 °F 6.4 °F 5.0 °F 58% 30.72 in 10.0 mi WNW 9.2 mph - N/A   Mostly Cloudy
6:53 PM 17.1 °F 5.0 °F 6.1 °F 62% 30.76 in 10.0 mi West 10.4 mph - N/A   Overcast
7:53 PM 17.1 °F 5.0 °F 6.1 °F 62% 30.78 in 10.0 mi WNW 10.4 mph - N/A   Overcast
8:53 PM 17.1 °F 6.6 °F 7.0 °F 65% 30.79 in 10.0 mi NW 8.1 mph - N/A   Overcast
9:24 PM 17.6 °F 6.4 °F 6.8 °F 63% 30.76 in 10.0 mi WNW 9.2 mph - N/A   Overcast
9:53 PM 17.1 °F 5.0 °F 7.0 °F 65% 30.80 in 10.0 mi NW 10.4 mph - N/A   Overcast
10:53 PM 16.0 °F 2.9 °F 8.1 °F 71% 30.81 in 5.0 mi WNW 11.5 mph - 0.00 in Snow Light Snow
11:53 PM 16.0 °F 4.4 °F 8.1 °F 71% 30.81 in 5.0 mi NW 9.2 mph - 0.00 in Snow Light Snow